User: anonymous   Login
Location: Del Oro Observatory
(38.3044°N, 104.8119°W)
Time: 19:35:21
(UTC-07:00)
Language:

Cosmos 1602 Rocket - Orbit

View from above orbital plane
View from above orbital plane
View from above satellite
View from above satellite

Ground track
Ground track

The orbit data is extracted from the following two-line orbital elements,

1 15332U 84105B   16043.19187466  .00000267  00000-0  29721-4 0  9998
2 15332  82.5349 286.9855 0020998 185.2381 332.4999 14.83204759693804
Epoch (UTC): 12 February 2016 04:36:17
Eccentricity: 0.0020998
inclination: 82.5349°
perigee height: 604 km
apogee height: 634 km
right ascension of ascending node: 286.9855°
argument of perigee: 185.2381°
revolutions per day: 14.83204759
mean anomaly at epoch: 332.4999°
orbit number at epoch: 69380

The dashed part of the orbit path shows where the satellite is in the earth's shadow,  

DLR